Location: Champaign/Urbana Astronomical Society Observatory
(40.0333°N, 88.2833°W)
Time: 09:22:24
(UTC-05:00)

YUBILEINY - Visible Passes

Search period start: 20 May 2019 00:00
Search period end: 30 May 2019 00:00
Orbit: 1479 x 1508 km, 82.5° (Epoch: 20 May)

Date Brightness Start Highest point End Pass type
(mag) Time Alt. Az. Time Alt. Az. Time Alt. Az.
20 May ? 20:49:41 10° SSW 20:58:14 52° WNW 21:06:49 10° N visible
21 May ? 22:00:47 10° WSW 22:06:34 19° WNW 22:12:25 10° NNW visible
22 May ? 21:08:22 10° SW 21:16:12 35° WNW 21:24:04 10° N visible
23 May ? 22:22:38 10° WNW 22:25:07 11° NW 22:27:36 10° NW visible
24 May ? 04:35:16 10° NE 04:38:27 12° ENE 04:41:36 10° E visible
24 May ? 21:27:50 10° WSW 21:34:23 23° WNW 21:40:59 10° NNW visible
25 May ? 20:35:58 10° SW 20:44:09 41° WNW 20:52:22 10° N visible
26 May ? 04:50:53 10° NNE 04:56:56 20° ENE 05:02:55 10° ESE visible
26 May ? 21:48:32 10° W 21:52:48 14° WNW 21:57:06 10° NNW visible
27 May ? 20:55:04 10° WSW 21:02:14 27° WNW 21:09:26 10° NNW visible
29 May ? 04:19:35 10° NNE 04:24:42 16° ENE 04:29:45 10° E visible
29 May ? 21:15:08 10° W 21:20:33 17° WNW 21:25:59 10° NNW visible
